Location: Newark
(37.9128°N, 122.4756°W)
Time: 13:33:35
(UTC+00:00)

Envisat - Visible Passes

Search period start: 28 February 2021 00:00
Search period end: 10 March 2021 00:00
Orbit: 764 x 766 km, 98.1° (Epoch: 27 February)

Date Brightness Start Highest point End Pass type
(mag) Time Alt. Az. Time Alt. Az. Time Alt. Az.
28 Feb 3.6 13:35:08 10° NNE 13:40:10 60° E 13:45:11 10° S visible
01 Mar 6.6 02:30:01 10° WSW 02:32:12 13° W 02:34:24 10° WNW visible
01 Mar 5.2 12:58:58 10° NE 13:03:12 26° E 13:07:24 10° SSE visible
02 Mar 6.3 12:24:49 10° ENE 12:26:02 11° E 12:27:15 10° ESE visible
02 Mar 3.0 14:00:29 10° N 14:05:33 76° WNW 14:10:37 10° SSW visible
03 Mar 4.1 13:23:50 10° NNE 13:28:43 47° E 13:33:35 10° S visible
04 Mar 5.6 12:47:58 10° NE 12:51:42 20° E 12:55:24 10° SE visible
05 Mar 3.1 13:49:02 10° NNE 13:54:09 85° ESE 13:59:14 10° SSW visible
06 Mar 4.7 13:12:34 10° NNE 13:17:15 36° E 13:21:54 10° SSE visible
07 Mar 6.0 12:37:08 10° NE 12:40:10 16° E 12:43:11 10° SE visible
08 Mar 3.5 13:37:39 10° NNE 13:42:43 66° ESE 13:47:45 10° S visible
09 Mar 6.8 02:33:08 10° WSW 02:34:47 11° W 02:36:27 10° WNW visible
09 Mar 5.1 13:01:24 10° NE 13:05:46 28° E 13:10:06 10° SSE visible
